Location: Sternwarte_Laufen
(47.9344°N, 12.9346°E)
Time: 04:41:05
(UTC+02:00)

ISS - Pass Details

Date: 15 July 2025
Orbit: 413 x 417 km, 51.6° (Epoch: 12 July)

Event Time Altitude Azimuth Distance (km) Brightness Sun altitude
Rises 23:32:31 0° 290° (WNW) 2,355 0.7 -17.0°
Reaches altitude 10° 23:34:38 10° 295° (WNW) 1,492 -0.3 -17.2°
Maximum altitude 23:37:56 53° 13° (NNE) 515 -3.1 -17.4°
Enters shadow 23:39:56 21° 85° (E) 999 -2.0 -17.5°
